Погода в Усише

Россия / Республика Дагестан     42°15′01″N   47°23′28″E
темп.,
°C
ветер,
м/с
пор.,
м/с
влажн.,
%
обл.,
%
осадки,
мм/ч
давл.,
гПа
погр.,
м
24 января, пн
пн2400:00−4зюз43560 0.0 101223
03:00−4зюз43590 0.0 101219
06:00−4зюз43570 0.0 101317
09:00−1зюз225812 0.0 101224
12:00+3сз126062 0.0 1010109
15:00+2ссз227423 0.0 101148
18:00−3зюз22825 0.0 101711
21:00−4зюз32700 0.0 101915
25 января, вт
вт2500:00−4зюз33640 0.0 102020
03:00−5зюз33600 0.0 102020
06:00−5зюз32630 0.0 102118
09:00−3юз22580 0.0 102051
12:00+1юв24531 0.0 1018346
15:00−2вюв328240 0.0 1021245
18:00−5вюв229283 0.0 1024264
21:00−6юв238940 0.1 1025201
26 января, ср
ср2600:00−7ю237915 0.0 102486
03:00−8ю227711 0.1 102368
06:00−8ююв228432 0.1 102260
09:00−6юв227229 0.1 1020160
12:00−4вюв227028 0.0 1017364
15:00−4вюв228137 0.1 1016309
18:00−6вюв129798 0.1 1017101
21:00−5вюв1191100 0.1 1017292
27 января, чт
чт2700:00−5юв1188100 0.1 1016269
03:00−6вюв0193100 0.1 101555
06:00−6юв1196100 0.4 101678
09:00−6вюв1191100 0.9 1016238
12:00−4в218299 0.2 1014526
15:00−5св2290100 0.6 1014332
18:00−6с1194100 0.3 1016132
21:00−5ссз2294100 0.6 1016228
28 января, пт
пт2800:00−7зсз119660 0.2 101739
03:00−7зсз119791 0.2 101928
06:00−7ссз119497 0.1 102065
09:00−7в1189100 0.1 1022266
12:00−5в3288100 0.7 1022518
15:00−6в3391100 1.6 1023495
18:00−8вюв129697 0.6 1025157
21:00−10ююз229252 0.6 102730